• In Deutschland
  • Länderverzeichnis
  • Für 7 Tage
  • Wassertemperatur
  • Satellitenkarten
  • Wetterkarte
  • Widgets
  • user-avatar
    Anmelden

    Stündliche Wetter Friedberg

    Heute, 20 Februar, Dienstag

    Zeit Temperatur Niederschläge Wind Luftdruck Luftfeuchtigkeit
    00:00 -4°C° 0 mm 0 m/S 715 mmHg 92%
    01:00 -4°C° 0 mm 0 m/S 715 mmHg 92%
    02:00 -4°C° 0 mm 0 m/S 715 mmHg 93%
    03:00 -4°C° 0 mm 0 m/S 715 mmHg 93%
    04:00 -4°C° 0 mm 0 m/S 715 mmHg 93%
    05:00 -4°C° 0 mm 0 m/S 715 mmHg 93%
    06:00 -5°C° 0 mm 0 m/S 715 mmHg 93%
    07:00 -5°C° 0 mm 0 m/S 714 mmHg 94%
    08:00 -4°C° 0 mm 0 m/S 714 mmHg 90%
    09:00 -3°C° 0 mm 0 m/S 714 mmHg 87%
    10:00 -1°C° 0 mm 1 m/S 714 mmHg 84%
    11:00 -1°C° 0 mm 1 m/S 714 mmHg 82%
    12:00 0°C° 0 mm 1 m/S 714 mmHg 80%
    13:00 0°C° 0 mm 1 m/S 714 mmHg 78%
    14:00 -2°C° 0 mm 2 m/S 714 mmHg 79%
    15:00 -2°C° 0 mm 2 m/S 714 mmHg 79%
    16:00 -2°C° 0 mm 2 m/S 714 mmHg 80%
    17:00 -2°C° 0,1 mm 2 m/S 714 mmHg 83%
    18:00 -1°C° 0,1 mm 1 m/S 715 mmHg 87%
    19:00 -2°C° 0,1 mm 1 m/S 715 mmHg 90%
    20:00 -2°C° 0 mm 1 m/S 715 mmHg 92%
    21:00 -3°C° 0 mm 1 m/S 716 mmHg 93%
    22:00 -3°C° 0 mm 1 m/S 716 mmHg 94%
    23:00 -3°C° 0 mm 1 m/S 716 mmHg 95%

    Morgen, 21 Februar, Mittwoch

    Zeit Temperatur Niederschläge Wind Luftdruck Luftfeuchtigkeit
    00:00 -3°C° 0 mm 1 m/S 716 mmHg 95%
    01:00 -4°C° 0 mm 1 m/S 716 mmHg 96%
    02:00 -3°C° 0 mm 1 m/S 717 mmHg 95%
    03:00 -3°C° 0 mm 1 m/S 717 mmHg 95%
    04:00 -3°C° 0 mm 1 m/S 717 mmHg 95%
    05:00 -5°C° 0 mm 2 m/S 717 mmHg 94%
    06:00 -5°C° 0 mm 2 m/S 717 mmHg 94%
    07:00 -5°C° 0 mm 2 m/S 717 mmHg 93%
    08:00 -4°C° 0 mm 2 m/S 717 mmHg 90%
    09:00 -4°C° 0 mm 2 m/S 717 mmHg 87%
    10:00 -3°C° 0 mm 2 m/S 717 mmHg 83%
    11:00 -2°C° 0 mm 3 m/S 717 mmHg 81%
    12:00 -1°C° 0 mm 3 m/S 717 mmHg 78%
    13:00 0°C° 0 mm 3 m/S 717 mmHg 75%
    14:00 0°C° 0 mm 3 m/S 716 mmHg 74%
    15:00 0°C° 0 mm 3 m/S 716 mmHg 73%
    16:00 0°C° 0 mm 3 m/S 716 mmHg 72%
    17:00 -1°C° 0 mm 3 m/S 716 mmHg 76%
    18:00 -2°C° 0 mm 3 m/S 716 mmHg 79%
    19:00 -4°C° 0 mm 3 m/S 716 mmHg 82%
    20:00 -5°C° 0 mm 3 m/S 716 mmHg 83%
    21:00 -5°C° 0 mm 3 m/S 717 mmHg 84%
    22:00 -5°C° 0 mm 4 m/S 717 mmHg 84%
    23:00 -5°C° 0 mm 4 m/S 716 mmHg 84%

    übermorgen, 22 Februar, Donnerstag

    Zeit Temperatur Niederschläge Wind Luftdruck Luftfeuchtigkeit
    00:00 -7°C° 0 mm 4 m/S 716 mmHg 84%
    01:00 -7°C° 0 mm 4 m/S 716 mmHg 84%
    02:00 -7°C° 0 mm 4 m/S 716 mmHg 84%
    03:00 -7°C° 0 mm 4 m/S 715 mmHg 84%
    04:00 -7°C° 0 mm 4 m/S 715 mmHg 83%
    05:00 -7°C° 0 mm 5 m/S 715 mmHg 83%
    06:00 -8°C° 0 mm 5 m/S 715 mmHg 83%
    07:00 -8°C° 0 mm 5 m/S 715 mmHg 83%
    08:00 -7°C° 0,1 mm 5 m/S 715 mmHg 81%
    09:00 -6°C° 0,1 mm 5 m/S 715 mmHg 79%
    10:00 -6°C° 0,1 mm 6 m/S 715 mmHg 77%
    11:00 -5°C° 0 mm 6 m/S 714 mmHg 75%
    12:00 -4°C° 0 mm 6 m/S 714 mmHg 74%
    13:00 -3°C° 0 mm 6 m/S 714 mmHg 72%
    14:00 -3°C° 0 mm 6 m/S 714 mmHg 72%
    15:00 -2°C° 0 mm 5 m/S 713 mmHg 73%
    16:00 -2°C° 0 mm 5 m/S 713 mmHg 73%
    17:00 -4°C° 0 mm 5 m/S 713 mmHg 75%
    18:00 -4°C° 0 mm 5 m/S 714 mmHg 77%
    19:00 -5°C° 0 mm 5 m/S 714 mmHg 79%
    20:00 -5°C° 0 mm 5 m/S 714 mmHg 80%
    21:00 -5°C° 0 mm 5 m/S 715 mmHg 80%
    22:00 -5°C° 0 mm 5 m/S 715 mmHg 81%
    23:00 -6°C° 0 mm 5 m/S 715 mmHg 82%

    23 Februar, Freitag

    Zeit Temperatur Niederschläge Wind Luftdruck Luftfeuchtigkeit
    00:00 -6°C° 0 mm 5 m/S 715 mmHg 82%
    01:00 -5°C° 0 mm 4 m/S 715 mmHg 83%
    02:00 -5°C° 0 mm 4 m/S 715 mmHg 83%
    03:00 -5°C° 0 mm 4 m/S 715 mmHg 83%
    04:00 -5°C° 0 mm 4 m/S 715 mmHg 83%
    05:00 -5°C° 0 mm 4 m/S 715 mmHg 83%
    06:00 -7°C° 0 mm 4 m/S 715 mmHg 83%
    07:00 -7°C° 0 mm 4 m/S 715 mmHg 83%
    08:00 -6°C° 0 mm 5 m/S 716 mmHg 81%
    09:00 -6°C° 0 mm 5 m/S 716 mmHg 79%
    10:00 -5°C° 0 mm 5 m/S 716 mmHg 77%
    11:00 -5°C° 0 mm 5 m/S 716 mmHg 75%
    12:00 -4°C° 0 mm 5 m/S 716 mmHg 73%
    13:00 -2°C° 0 mm 5 m/S 716 mmHg 71%
    14:00 -2°C° 0 mm 5 m/S 716 mmHg 71%
    15:00 -2°C° 0 mm 5 m/S 716 mmHg 70%
    16:00 -2°C° 0 mm 5 m/S 716 mmHg 70%
    17:00 -4°C° 0 mm 5 m/S 716 mmHg 72%
    18:00 -4°C° 0 mm 5 m/S 717 mmHg 74%
    19:00 -5°C° 0 mm 5 m/S 717 mmHg 75%
    20:00 -6°C° 0 mm 5 m/S 717 mmHg 76%
    21:00 -6°C° 0 mm 5 m/S 718 mmHg 76%
    22:00 -6°C° 0 mm 5 m/S 718 mmHg 77%
    23:00 -7°C° 0 mm 5 m/S 718 mmHg 76%

    24 Februar, Samstag

    Zeit Temperatur Niederschläge Wind Luftdruck Luftfeuchtigkeit
    00:00 -7°C° 0 mm 5 m/S 718 mmHg 76%
    01:00 -7°C° 0 mm 5 m/S 718 mmHg 76%
    02:00 -8°C° 0 mm 6 m/S 718 mmHg 76%
    03:00 -9°C° 0 mm 6 m/S 718 mmHg 75%
    04:00 -9°C° 0 mm 6 m/S 718 mmHg 75%
    05:00 -9°C° 0 mm 6 m/S 718 mmHg 73%
    06:00 -10°C° 0 mm 6 m/S 718 mmHg 72%
    07:00 -10°C° 0 mm 6 m/S 718 mmHg 70%
    08:00 -9°C° 0 mm 6 m/S 718 mmHg 65%
    09:00 -8°C° 0 mm 7 m/S 718 mmHg 61%
    10:00 -8°C° 0 mm 7 m/S 718 mmHg 56%
    11:00 -7°C° 0 mm 7 m/S 717 mmHg 54%
    12:00 -6°C° 0 mm 7 m/S 717 mmHg 51%
    13:00 -4°C° 0 mm 7 m/S 717 mmHg 48%
    14:00 -4°C° 0 mm 7 m/S 717 mmHg 50%
    15:00 -4°C° 0 mm 7 m/S 717 mmHg 51%
    16:00 -4°C° 0 mm 7 m/S 717 mmHg 52%
    17:00 -6°C° 0 mm 7 m/S 717 mmHg 56%
    18:00 -6°C° 0 mm 6 m/S 717 mmHg 60%
    19:00 -8°C° 0 mm 6 m/S 717 mmHg 64%
    20:00 -9°C° 0 mm 6 m/S 718 mmHg 64%
    21:00 -9°C° 0 mm 7 m/S 718 mmHg 64%
    22:00 -11°C° 0 mm 7 m/S 718 mmHg 65%
    23:00 -11°C° 0 mm 7 m/S 718 mmHg 65%

    25 Februar, Sonntag

    Zeit Temperatur Niederschläge Wind Luftdruck Luftfeuchtigkeit
    00:00 -11°C° 0 mm 6 m/S 718 mmHg 66%
    01:00 -11°C° 0 mm 6 m/S 718 mmHg 66%
    02:00 -11°C° 0 mm 6 m/S 718 mmHg 65%
    03:00 -13°C° 0 mm 7 m/S 718 mmHg 64%
    04:00 -13°C° 0 mm 7 m/S 717 mmHg 64%
    05:00 -14°C° 0 mm 7 m/S 717 mmHg 63%
    06:00 -14°C° 0 mm 6 m/S 718 mmHg 63%
    07:00 -15°C° 0 mm 6 m/S 718 mmHg 63%
    08:00 -14°C° 0 mm 7 m/S 718 mmHg 61%
    09:00 -14°C° 0 mm 7 m/S 717 mmHg 59%
    10:00 -13°C° 0 mm 7 m/S 717 mmHg 56%
    11:00 -13°C° 0 mm 7 m/S 717 mmHg 54%
    12:00 -12°C° 0 mm 7 m/S 717 mmHg 51%
    13:00 -11°C° 0 mm 7 m/S 716 mmHg 49%
    14:00 -11°C° 0 mm 7 m/S 716 mmHg 49%
    15:00 -11°C° 0 mm 7 m/S 716 mmHg 50%
    16:00 -11°C° 0 mm 7 m/S 716 mmHg 51%
    17:00 -11°C° 0 mm 6 m/S 716 mmHg 54%
    18:00 -11°C° 0 mm 6 m/S 717 mmHg 57%
    19:00 -12°C° 0 mm 6 m/S 717 mmHg 60%
    20:00 -12°C° 0 mm 6 m/S 717 mmHg 61%
    21:00 -12°C° 0 mm 6 m/S 717 mmHg 62%
    22:00 -12°C° 0 mm 6 m/S 717 mmHg 63%
    23:00 -12°C° 0 mm 6 m/S 717 mmHg 63%
    Mehr zeigen